Ephrata, WA

1:05 AM PST on February 21, 2017 (GMT -0800)
Ephrata Municipal

Weather History for KEPH - July, 2013

Change the Weather History Date:

Tuesday, July 16, 2013

  Actual Average Record
Temperature  
Mean Temperature 81 °F 75 °F  
Max Temperature 96 °F 89 °F 106 °F (2014)
Min Temperature 65 °F 61 °F 42 °F (1982)
Degree Days  
Heating Degree Days 0 0  
Month to date heating degree days 0 4  
Since 1 June heating degree days 58 64  
Since 1 July heating degree days 0 4  
Cooling Degree Days 16 10  
Month to date cooling degree days 199 132  
Year to date cooling degree days 368 279  
Since 1 June cooling degree days 311 242  
Growing Degree Days 30 (Base 50)    
Moisture  
Dew Point 38 °F    
Average Humidity 25    
Maximum Humidity 40    
Minimum Humidity 10    
Precipitation  
Precipitation 0.00 in 0.01 in 0.28 in (1978)
Month to date precipitation T 0.21  
Year to date precipitation 3.61 4.28  
Sea Level Pressure  
Sea Level Pressure 29.86 in    
Wind  
Wind Speed 13 mph (North)    
Max Wind Speed 23 mph    
Max Gust Speed 28 mph    
Visibility 10 miles    
Events Thunderstorm    
T = Trace of Precipitation, MM = Missing Value Source: NWS Daily Summary

Daily Weather History Graph

Daily Weather History Graph

Search for Another Location

Airport or City:

Trip Planner

Search our weather history database for the weather conditions in past years. The results will help you decide how hot, cold, wet, or windy it might be!

Date:

Astronomy

Jul. 16, 2013 Rise Set
Actual Time 5:18 AM PDT 8:49 PM PDT
Civil Twilight 4:40 AM PDT 9:27 PM PDT
Nautical Twilight 3:49 AM PDT 10:18 PM PDT
Astronomical Twilight 2:41 AM PDT 11:25 PM PDT
Moon 2:27 PM PDT (7/16) 12:03 AM PDT (7/16)
Length of Visible Light 16h 47m
Length of Day
15h 30m
First Quarter, 57% of the Moon is Illuminated
Jul 16
First Quarter
Jul 22
Full
Jul 29
Last Quarter
Aug 6
New
Aug 14
First Quarter

Hourly Weather History & Observations

Time (PDT) Temp. Dew Point Humidity Pressure Visibility Wind Dir Wind Speed Gust Speed Precip Events Conditions
12:53 AM 69.1 °F 41.0 °F 36% 29.94 in 10.0 mi North 13.8 mph - N/A   Clear
1:53 AM 68.0 °F 39.9 °F 36% 29.94 in 10.0 mi North 13.8 mph - N/A   Clear
2:53 AM 66.0 °F 37.9 °F 36% 29.94 in 10.0 mi NNW 15.0 mph - N/A   Clear
3:53 AM 66.9 °F 39.0 °F 36% 29.94 in 10.0 mi North 15.0 mph - N/A   Clear
4:53 AM 64.9 °F 37.9 °F 37% 29.94 in 10.0 mi NNW 19.6 mph - N/A   Clear
5:53 AM 64.9 °F 39.0 °F 39% 29.93 in 10.0 mi NNW 19.6 mph - N/A   Clear
6:53 AM 66.9 °F 39.0 °F 36% 29.94 in 10.0 mi North 20.7 mph - N/A   Clear
7:53 AM 72.0 °F 39.0 °F 30% 29.94 in 10.0 mi North 17.3 mph - N/A   Clear
8:53 AM 75.9 °F 39.0 °F 26% 29.93 in 10.0 mi North 17.3 mph - N/A   Clear
9:53 AM 80.1 °F 39.0 °F 23% 29.92 in 10.0 mi North 16.1 mph 23.0 mph N/A   Clear
10:53 AM 82.9 °F 39.0 °F 21% 29.91 in 10.0 mi NNE 13.8 mph 20.7 mph N/A   Clear
11:53 AM 84.9 °F 39.0 °F 20% 29.89 in 10.0 mi NNE 8.1 mph 21.9 mph N/A   Clear
12:53 PM 88.0 °F 37.0 °F 16% 29.87 in 10.0 mi NE 11.5 mph 20.7 mph N/A   Clear
1:53 PM 91.0 °F 35.1 °F 14% 29.84 in 10.0 mi NNE 8.1 mph 18.4 mph N/A   Clear
2:53 PM 93.9 °F 34.0 °F 12% 29.82 in 10.0 mi North 12.7 mph 18.4 mph N/A   Clear
3:53 PM 96.1 °F 34.0 °F 11% 29.78 in 10.0 mi NNE 19.6 mph 24.2 mph N/A   Clear
4:53 PM 95.0 °F 32.0 °F 11% 29.77 in 10.0 mi NNE 16.1 mph - N/A   Clear
5:53 PM 95.0 °F 30.0 °F 10% 29.76 in 10.0 mi North 8.1 mph - N/A   Clear
6:53 PM 93.0 °F 32.0 °F 12% 29.76 in 10.0 mi North 9.2 mph - N/A   Clear
7:53 PM 87.1 °F 37.9 °F 18% 29.77 in 10.0 mi North 4.6 mph - N/A   Clear
8:53 PM 87.1 °F 41.0 °F 20% 29.78 in 10.0 mi North 8.1 mph - N/A   Partly Cloudy
9:53 PM 84.9 °F 39.0 °F 20% 29.77 in 10.0 mi NNW 12.7 mph - N/A   Clear
10:45 PM 82.4 °F 41.0 °F 23% 29.82 in 10.0 mi North 6.9 mph - N/A Thunderstorm Clear
10:53 PM 81.0 °F 41.0 °F 24% 29.79 in 10.0 mi NNW 5.8 mph - N/A Thunderstorm Clear
11:00 PM 80.6 °F 41.0 °F 24% 29.82 in 10.0 mi NW 6.9 mph - N/A   Clear
11:53 PM 79.0 °F 42.1 °F 27% 29.79 in 10.0 mi NNW 4.6 mph - N/A   Clear